DLH830 EDDF-EKCH

Flight info

Callsign DLH830
Flight time 1h 4m
Altitude 33000
Route MARUN3W/25C MARUN Y150 TOLGI DCT SAS DCT MAKEL N851 GESKA Z711 MONAK
Aircraft A320/M-SDE3FGHIRWY/LB1

Departure

Time 2026-05-04 17:26
Airport Frankfurt Main Airport (EDDF)

Arrival

Time 2026-05-04 18:30
Airport Copenhagen Kastrup Airport (EKCH)
Time Latitude Longitude Altitude Speed Heading
2026-05-04 17:07 50.04868 8.58978 351 ft 0 kts 340°
2026-05-04 17:16 50.04830 8.58999 350 ft 2 kts 340°
2026-05-04 17:17 50.04814 8.59008 354 ft 2 kts 340°
2026-05-04 17:17 50.04779 8.59028 353 ft 0 kts 340°
2026-05-04 17:21 50.04784 8.59021 355 ft 4 kts 321°
2026-05-04 17:21 50.04753 8.58875 353 ft 0 kts 248°
2026-05-04 17:23 50.04688 8.58767 347 ft 12 kts 188°
2026-05-04 17:23 50.04613 8.58746 345 ft 10 kts 201°
2026-05-04 17:23 50.04512 8.58634 347 ft 8 kts 216°
2026-05-04 17:24 50.04484 8.58576 360 ft 2 kts 250°
2026-05-04 17:24 50.04462 8.58482 354 ft 35 kts 250°
2026-05-04 17:25 50.04289 8.57755 351 ft 105 kts 249°
2026-05-04 17:25 50.03558 8.54691 814 ft 167 kts 251°
2026-05-04 17:26 50.02729 8.51236 2043 ft 184 kts 251°
2026-05-04 17:26 49.99321 8.47813 3616 ft 215 kts 189°
2026-05-04 17:27 49.96385 8.47164 5101 ft 209 kts 190°
2026-05-04 17:27 49.93416 8.45863 6116 ft 238 kts 196°
2026-05-04 17:28 49.90891 8.42665 7841 ft 247 kts 245°
2026-05-04 17:29 49.92697 8.35524 10340 ft 280 kts 331°
2026-05-04 17:29 49.98692 8.31603 11301 ft 348 kts 335°
2026-05-04 17:30 50.05351 8.29161 12510 ft 386 kts 359°
2026-05-04 17:31 50.10706 8.30850 13925 ft 396 kts 18°
2026-05-04 17:31 50.18610 8.34981 15752 ft 407 kts 18°
2026-05-04 17:32 50.24065 8.37857 16826 ft 415 kts 18°
2026-05-04 17:33 50.32296 8.42211 17145 ft 419 kts 18°
2026-05-04 17:33 50.35055 8.43706 17778 ft 421 kts 18°
2026-05-04 17:34 50.42929 8.50161 19323 ft 431 kts 31°
2026-05-04 17:34 50.45496 8.52614 19800 ft 434 kts 31°
2026-05-04 17:35 50.53311 8.60131 21177 ft 444 kts 31°
2026-05-04 17:35 50.58605 8.65219 22088 ft 449 kts 30°
2026-05-04 17:35 50.61287 8.67796 22529 ft 453 kts 30°
2026-05-04 17:36 50.64027 8.70431 22955 ft 456 kts 30°
2026-05-04 17:36 50.66736 8.73044 23373 ft 459 kts 30°
2026-05-04 17:36 50.69466 8.75682 23732 ft 462 kts 30°
2026-05-04 17:36 50.72212 8.78343 24080 ft 465 kts 30°
2026-05-04 17:37 50.74974 8.81022 24418 ft 467 kts 30°
2026-05-04 17:37 50.77769 8.83677 24752 ft 469 kts 26°
2026-05-04 17:37 50.80761 8.85741 25069 ft 470 kts 20°
2026-05-04 17:37 50.83798 8.87703 25401 ft 473 kts 20°
2026-05-04 17:38 50.86856 8.89675 25743 ft 475 kts 20°
2026-05-04 17:38 50.89932 8.91655 26064 ft 478 kts 20°
2026-05-04 17:38 50.93019 8.93647 26376 ft 480 kts 20°
2026-05-04 17:38 50.96121 8.95654 26687 ft 483 kts 20°
2026-05-04 17:39 51.02403 8.99750 27259 ft 488 kts 20°
2026-05-04 17:39 51.05554 9.01813 27548 ft 490 kts 20°
2026-05-04 17:39 51.08716 9.03885 27830 ft 493 kts 20°
2026-05-04 17:40 51.11896 9.05968 28109 ft 495 kts 20°
2026-05-04 17:40 51.15091 9.08061 28424 ft 496 kts 20°
2026-05-04 17:40 51.18324 9.10181 28823 ft 496 kts 20°
2026-05-04 17:40 51.21511 9.12271 29236 ft 495 kts 20°
2026-05-04 17:41 51.24682 9.14355 29691 ft 494 kts 19°
2026-05-04 17:41 51.27862 9.16451 30117 ft 492 kts 19°
2026-05-04 17:41 51.31029 9.18547 30478 ft 491 kts 19°
2026-05-04 17:41 51.34183 9.20635 30831 ft 491 kts 19°
2026-05-04 17:42 51.37336 9.22725 31190 ft 490 kts 19°
2026-05-04 17:42 51.40490 9.24815 31549 ft 489 kts 19°
2026-05-04 17:42 51.43662 9.26921 31909 ft 488 kts 19°
2026-05-04 17:42 51.46795 9.29009 32273 ft 487 kts 19°
2026-05-04 17:43 51.49917 9.31095 32607 ft 487 kts 20°
2026-05-04 17:43 51.53045 9.33191 32921 ft 487 kts 19°
2026-05-04 17:43 51.59314 9.37393 32978 ft 489 kts 19°
2026-05-04 17:44 51.65595 9.41603 32988 ft 489 kts 19°
2026-05-04 17:44 51.71883 9.45823 32981 ft 491 kts 19°
2026-05-04 17:45 51.78185 9.50071 32979 ft 491 kts 20°
2026-05-04 17:45 51.81344 9.52215 33190 ft 492 kts 20°
2026-05-04 17:45 51.84484 9.54414 33547 ft 492 kts 21°
2026-05-04 17:46 51.87610 9.56823 33894 ft 492 kts 24°
2026-05-04 17:46 51.90618 9.59320 34197 ft 492 kts 25°
2026-05-04 17:46 51.93644 9.61936 34496 ft 491 kts 25°
2026-05-04 17:46 51.96680 9.64583 34798 ft 490 kts 25°
2026-05-04 17:47 51.99690 9.67183 34956 ft 490 kts 25°
2026-05-04 17:47 52.02703 9.69738 34973 ft 489 kts 24°
2026-05-04 17:47 52.08749 9.74758 34973 ft 488 kts 24°
2026-05-04 17:48 52.14802 9.79767 34980 ft 488 kts 24°
2026-05-04 17:48 52.20844 9.84831 34976 ft 488 kts 24°
2026-05-04 17:49 52.26875 9.89918 34974 ft 488 kts 24°
2026-05-04 17:49 52.32927 9.94936 34957 ft 487 kts 23°
2026-05-04 17:50 52.38983 9.99902 34974 ft 487 kts 23°
2026-05-04 17:50 52.45040 10.04888 34952 ft 487 kts 23°
2026-05-04 17:51 52.51083 10.09923 34951 ft 487 kts 23°
2026-05-04 17:51 52.57131 10.14980 34951 ft 487 kts 23°
2026-05-04 17:52 52.63175 10.20043 34961 ft 488 kts 23°
2026-05-04 17:52 52.69259 10.25162 34958 ft 488 kts 23°
2026-05-04 17:53 52.75302 10.30252 34957 ft 488 kts 23°
2026-05-04 17:53 52.81354 10.35349 34979 ft 488 kts 22°
2026-05-04 17:54 52.87394 10.40466 34973 ft 488 kts 23°
2026-05-04 17:54 52.93433 10.45609 34969 ft 488 kts 23°
2026-05-04 17:55 52.99467 10.50752 34972 ft 488 kts 23°
2026-05-04 17:55 53.05503 10.55908 34969 ft 488 kts 23°
2026-05-04 17:56 53.11534 10.61088 34968 ft 488 kts 23°
2026-05-04 17:56 53.17564 10.66282 34969 ft 488 kts 23°
2026-05-04 17:57 53.23594 10.71502 34964 ft 488 kts 23°
2026-05-04 17:57 53.29614 10.76721 34990 ft 487 kts 23°
2026-05-04 17:58 53.34648 10.81098 34985 ft 486 kts 23°
2026-05-04 17:58 53.40649 10.86329 34982 ft 486 kts 23°
2026-05-04 17:59 53.46643 10.91564 34963 ft 486 kts 23°
2026-05-04 18:00 53.55622 10.99449 34996 ft 484 kts 22°
2026-05-04 18:00 53.61584 11.04703 34995 ft 483 kts 22°
2026-05-04 18:01 53.67533 11.09967 34992 ft 482 kts 23°
2026-05-04 18:01 53.73466 11.15238 35011 ft 482 kts 22°
2026-05-04 18:02 53.79390 11.20510 34629 ft 480 kts 22°
2026-05-04 18:02 53.82382 11.23175 34246 ft 480 kts 22°
2026-05-04 18:02 53.85334 11.25810 33877 ft 480 kts 22°
2026-05-04 18:02 53.88294 11.28455 33467 ft 482 kts 22°
2026-05-04 18:03 53.91252 11.31101 33046 ft 478 kts 22°
2026-05-04 18:03 53.94171 11.33725 32647 ft 472 kts 22°
2026-05-04 18:03 53.97065 11.36336 32279 ft 470 kts 22°
2026-05-04 18:03 53.99990 11.38978 31883 ft 469 kts 22°
2026-05-04 18:04 54.02824 11.41538 31500 ft 468 kts 22°
2026-05-04 18:04 54.05700 11.44134 31118 ft 467 kts 22°
2026-05-04 18:04 54.11429 11.49317 30370 ft 465 kts 22°
2026-05-04 18:05 54.14287 11.51914 29996 ft 465 kts 22°
2026-05-04 18:05 54.17133 11.54502 29570 ft 463 kts 22°
2026-05-04 18:05 54.19963 11.57077 29169 ft 459 kts 21°
2026-05-04 18:05 54.22772 11.59639 28751 ft 457 kts 21°
2026-05-04 18:06 54.28337 11.64731 28014 ft 450 kts 22°
2026-05-04 18:06 54.31082 11.67256 27966 ft 448 kts 21°
2026-05-04 18:06 54.33835 11.69786 27763 ft 448 kts 21°
2026-05-04 18:07 54.36609 11.72339 27497 ft 445 kts 21°
2026-05-04 18:07 54.39331 11.74848 27234 ft 443 kts 21°
2026-05-04 18:07 54.42040 11.77354 26973 ft 441 kts 22°
2026-05-04 18:07 54.44730 11.79845 26743 ft 438 kts 21°
2026-05-04 18:08 54.47433 11.82208 26498 ft 434 kts 19°
2026-05-04 18:08 54.50159 11.84402 26236 ft 430 kts 17°
2026-05-04 18:08 54.52885 11.86483 25980 ft 427 kts 16°
2026-05-04 18:08 54.55605 11.88525 25734 ft 425 kts 16°
2026-05-04 18:09 54.60907 11.92621 25284 ft 405 kts 19°
2026-05-04 18:09 54.65662 11.97691 23893 ft 400 kts 27°
2026-05-04 18:10 54.67933 12.00335 23386 ft 389 kts 28°
2026-05-04 18:10 54.70145 12.02921 22756 ft 380 kts 28°
2026-05-04 18:10 54.72311 12.05451 22054 ft 373 kts 28°
2026-05-04 18:10 54.74450 12.07939 21364 ft 368 kts 29°
2026-05-04 18:11 54.76564 12.10390 20677 ft 363 kts 29°
2026-05-04 18:11 54.78651 12.12805 20022 ft 358 kts 29°
2026-05-04 18:11 54.80709 12.15188 19380 ft 354 kts 29°
2026-05-04 18:11 54.82744 12.17549 18767 ft 350 kts 30°
2026-05-04 18:12 54.84780 12.19917 18132 ft 346 kts 30°
2026-05-04 18:12 54.86779 12.22247 17484 ft 348 kts 30°
2026-05-04 18:12 54.88773 12.24577 17187 ft 343 kts 30°
2026-05-04 18:12 54.90741 12.26884 16873 ft 340 kts 30°
2026-05-04 18:13 54.92701 12.29182 16501 ft 339 kts 30°
2026-05-04 18:13 54.94650 12.31463 16135 ft 337 kts 30°
2026-05-04 18:13 54.98524 12.36001 15472 ft 334 kts 30°
2026-05-04 18:14 55.00447 12.38257 15039 ft 331 kts 30°
2026-05-04 18:14 55.02353 12.40486 14551 ft 329 kts 29°
2026-05-04 18:14 55.04250 12.42696 14084 ft 327 kts 29°
2026-05-04 18:15 55.08018 12.47091 13318 ft 324 kts 30°
2026-05-04 18:15 55.11735 12.51448 12651 ft 320 kts 30°
2026-05-04 18:15 55.13575 12.53607 12323 ft 317 kts 30°
2026-05-04 18:16 55.15397 12.55752 12003 ft 315 kts 30°
2026-05-04 18:16 55.17209 12.57887 11724 ft 311 kts 30°
2026-05-04 18:16 55.18978 12.59974 11596 ft 302 kts 30°
2026-05-04 18:17 55.22337 12.63929 10990 ft 284 kts 27°
2026-05-04 18:17 55.24082 12.65440 10606 ft 277 kts 15°
2026-05-04 18:17 55.27733 12.67508 10028 ft 272 kts 13°
2026-05-04 18:18 55.29527 12.68531 9723 ft 270 kts 13°
2026-05-04 18:18 55.31309 12.69552 9388 ft 269 kts 13°
2026-05-04 18:18 55.33087 12.70572 9038 ft 268 kts 13°
2026-05-04 18:18 55.34855 12.71581 8703 ft 266 kts 13°
2026-05-04 18:19 55.38363 12.73580 8021 ft 263 kts 13°
2026-05-04 18:19 55.40100 12.74572 7676 ft 262 kts 13°
2026-05-04 18:19 55.41838 12.75570 7329 ft 261 kts 14°
2026-05-04 18:20 55.43555 12.76561 6995 ft 259 kts 14°
2026-05-04 18:20 55.45261 12.77544 6649 ft 257 kts 14°
2026-05-04 18:20 55.46957 12.78518 6306 ft 256 kts 14°
2026-05-04 18:20 55.48643 12.79484 5955 ft 254 kts 14°
2026-05-04 18:21 55.50317 12.80447 5599 ft 252 kts 14°
2026-05-04 18:21 55.51980 12.81404 5251 ft 250 kts 14°
2026-05-04 18:21 55.53634 12.82357 4887 ft 249 kts 14°
2026-05-04 18:21 55.55271 12.83300 4546 ft 246 kts 14°
2026-05-04 18:22 55.56886 12.84312 4180 ft 245 kts 18°
2026-05-04 18:22 55.58466 12.85428 4002 ft 243 kts 19°
2026-05-04 18:22 55.60006 12.86556 4005 ft 236 kts 19°
2026-05-04 18:22 55.61517 12.87670 4008 ft 235 kts 20°
2026-05-04 18:23 55.63014 12.88823 4018 ft 235 kts 20°
2026-05-04 18:23 55.64500 12.90001 4010 ft 234 kts 20°
2026-05-04 18:23 55.65984 12.91186 4009 ft 234 kts 20°
2026-05-04 18:23 55.67471 12.92377 4009 ft 233 kts 20°
2026-05-04 18:24 55.68937 12.93553 4009 ft 234 kts 20°
2026-05-04 18:24 55.70439 12.94757 4009 ft 235 kts 20°
2026-05-04 18:24 55.71975 12.95616 4011 ft 228 kts 358°
2026-05-04 18:24 55.73537 12.95357 4004 ft 224 kts 342°
2026-05-04 18:25 55.74857 12.94056 3925 ft 216 kts 311°
2026-05-04 18:25 55.75522 12.91741 3595 ft 213 kts 278°
2026-05-04 18:25 55.75394 12.89156 3231 ft 215 kts 258°
2026-05-04 18:25 55.74938 12.86679 3101 ft 208 kts 244°
2026-05-04 18:26 55.74062 12.84690 2998 ft 203 kts 225°
2026-05-04 18:26 55.73030 12.83086 2800 ft 190 kts 225°
2026-05-04 18:26 55.72064 12.81583 2547 ft 179 kts 225°
2026-05-04 18:26 55.71152 12.80162 2306 ft 169 kts 225°
2026-05-04 18:27 55.70293 12.78822 2107 ft 156 kts 226°
2026-05-04 18:27 55.69510 12.77603 1888 ft 143 kts 226°
2026-05-04 18:27 55.68779 12.76463 1707 ft 138 kts 227°
2026-05-04 18:27 55.68065 12.75348 1498 ft 136 kts 226°
2026-05-04 18:28 55.67594 12.74614 1385 ft 136 kts 226°
2026-05-04 18:28 55.66887 12.73514 1194 ft 134 kts 226°
2026-05-04 18:28 55.66186 12.72423 1019 ft 132 kts 226°
2026-05-04 18:28 55.65501 12.71360 815 ft 132 kts 226°
2026-05-04 18:29 55.64808 12.70279 633 ft 134 kts 224°
2026-05-04 18:29 55.64100 12.69183 463 ft 135 kts 223°
2026-05-04 18:29 55.63365 12.68047 278 ft 139 kts 224°
2026-05-04 18:29 55.62633 12.66904 93 ft 137 kts 225°
2026-05-04 18:30 55.61623 12.65326 15 ft 35 kts 233°
2026-05-04 18:30 55.61619 12.65014 18 ft 23 kts 296°
2026-05-04 18:30 55.61700 12.64850 17 ft 17 kts 324°
2026-05-04 18:31 55.61797 12.64784 17 ft 12 kts 355°
2026-05-04 18:31 55.61861 12.64797 17 ft 7 kts 15°
2026-05-04 18:31 55.61879 12.64808 17 ft 0 kts 22°
2026-05-04 18:33 55.61884 12.64812 19 ft 4 kts 22°
2026-05-04 18:33 55.61914 12.64843 17 ft 5 kts 33°
2026-05-04 18:33 55.61940 12.64872 17 ft 2 kts 33°
2026-05-04 18:34 55.61941 12.64874 17 ft 0 kts 33°
2026-05-04 18:34 55.61969 12.64907 17 ft 13 kts 34°
2026-05-04 18:35 55.62065 12.64858 20 ft 17 kts 303°
2026-05-04 18:35 55.62127 12.64691 19 ft 20 kts 303°
2026-05-04 18:35 55.62211 12.64462 16 ft 24 kts 303°
2026-05-04 18:35 55.62310 12.64197 15 ft 27 kts 304°
2026-05-04 18:36 55.62408 12.63932 17 ft 22 kts 302°
2026-05-04 18:36 55.62477 12.63808 16 ft 13 kts 329°
2026-05-04 18:36 55.62533 12.63772 17 ft 2 kts 349°
2026-05-04 18:36 55.62536 12.63772 19 ft 0 kts 351°
2026-05-04 18:37 55.62536 12.63771 19 ft 1 kts 351°
2026-05-04 18:38 55.62582 12.63770 17 ft 7 kts
2026-05-04 18:38 55.62606 12.63780 17 ft 0 kts 16°
2026-05-04 18:39 55.62623 12.63790 17 ft 10 kts 18°
2026-05-04 18:39 55.62693 12.63861 19 ft 5 kts 41°
2026-05-04 18:40 55.62684 12.63969 18 ft 11 kts 123°
2026-05-04 18:40 55.62645 12.64076 17 ft 10 kts 122°
2026-05-04 18:40 55.62621 12.64160 17 ft 5 kts 89°
2026-05-04 18:40 55.62630 12.64185 17 ft 0 kts 47°
2026-05-04 18:41 55.62646 12.64206 17 ft 3 kts 34°
2026-05-04 18:41 55.62662 12.64225 19 ft 2 kts 33°
2026-05-04 18:41 55.62670 12.64234 18 ft 0 kts 33°